Wind Star — C6CA9 — position and weather

sailwx.info

Track history (hours):
 
Tides and Currents Weather Stations Pressure Air Temp Water Temp Dewpoint Dewpoint Depression Visibility Wind Speed Wind Dir Waves Ship Positions

Wind Star

Operator: Holland America Line

Last reported at 2014-Jul-30 00:30 UTC. Time now 2014-Jul-30 07:11 UTC.
Position N 36°36' E 027°27'.

Length 135 m; draft 4.1 m.

Type: Ship. MMSI: 309163000.

Date/timePositionNaut miles runAvg speedWind from/ knotsBaromVisibWave heightAir tempDewpointWater temp
2014-Jul-30 00:30N 36°36' E 027°27'18 0.7
2014-Jul-28 23:29N 36°18' E 027°32'5310.6
2014-Jul-28 18:26N 36°17' E 026°26'1011.5
2014-Jul-28 17:33N 36°19' E 026°13'1211.5
2014-Jul-28 16:32N 36°19' E 025°59'1111.7
2014-Jul-28 15:33N 36°20' E 025°45'1211.6
2014-Jul-28 14:33N 36°19' E 025°30'8 7.6
2014-Jul-28 13:33N 36°23' E 025°22'3 2.9
2014-Jul-28 12:32N 36°25' E 025°25'0 0.0
2014-Jul-28 11:26N 36°25' E 025°25'0 0.0
2014-Jul-28 10:32N 36°25' E 025°25'0 0.0
2014-Jul-28 09:26N 36°25' E 025°25'0 0.0
2014-Jul-28 08:26N 36°25' E 025°25'0 0.0
2014-Jul-28 07:20N 36°25' E 025°25'0 0.0
2014-Jul-28 06:32N 36°25' E 025°25'0 0.0
2014-Jul-28 05:32N 36°25' E 025°25'0 0.2
2014-Jul-28 04:33N 36°25' E 025°25'4 4.3
2014-Jul-28 03:33N 36°28' E 025°21'6 5.9
2014-Jul-28 02:33N 36°33' E 025°18'6 5.9
2014-Jul-28 01:33N 36°39' E 025°15'6 5.9
2014-Jul-28 00:33N 36°44' E 025°12'5 5.5
2014-Jul-27 23:33N 36°50' E 025°12'6 5.9
2014-Jul-27 22:33N 36°54' E 025°17'6 6.0
2014-Jul-27 21:33N 37°00' E 025°18'6 6.2
2014-Jul-27 20:33N 37°06' E 025°19'6 6.1
2014-Jul-27 19:33N 37°13' E 025°19'6 6.5
2014-Jul-27 18:33N 37°19' E 025°18'7 6.6
2014-Jul-27 17:33N 37°26' E 025°17'2 1.8
2014-Jul-27 16:33N 37°27' E 025°19'0 0.0
2014-Jul-27 15:33N 37°27' E 025°19'0 0.0
2014-Jul-27 14:33N 37°27' E 025°19'0 0.0
2014-Jul-27 13:33N 37°27' E 025°19'0 0.0
2014-Jul-27 12:33N 37°27' E 025°19'0 0.0
2014-Jul-27 11:33N 37°27' E 025°19'0 0.0
2014-Jul-27 10:33N 37°27' E 025°19'0 0.0
2014-Jul-27 09:33N 37°27' E 025°19'0 0.0
2014-Jul-27 08:33N 37°27' E 025°19'0 0.0
2014-Jul-27 07:33N 37°27' E 025°19'0 0.0
2014-Jul-27 06:33N 37°27' E 025°19'0 0.0
2014-Jul-27 05:33N 37°27' E 025°19'0 0.0
2014-Jul-27 04:33N 37°27' E 025°19'3 2.6
2014-Jul-27 03:34N 37°28' E 025°16'7 6.5
2014-Jul-27 02:33N 37°29' E 025°08'6 6.4
2014-Jul-27 01:33N 37°31' E 025°01'13 6.3
2014-Jul-26 23:34N 37°30' E 024°45'6 6.5
2014-Jul-26 22:33N 37°30' E 024°37'7 7.2
2014-Jul-26 21:31N 37°31' E 024°27'27 6.3
2014-Jul-26 17:12N 37°37' E 023°54'6 9.3
2014-Jul-26 16:33N 37°38' E 023°46'9 9.0
2014-Jul-26 15:34N 37°45' E 023°40'1010.4
2014-Jul-26 14:34N 37°55' E 023°37'2 1.7
2014-Jul-26 13:33N 37°56' E 023°38'0 0.0
2014-Jul-26 12:33N 37°56' E 023°38'0 0.0
2014-Jul-26 11:33N 37°56' E 023°38'0 0.0
2014-Jul-26 10:33N 37°56' E 023°38'0 0.0
2014-Jul-26 09:33N 37°56' E 023°38'0 0.0
2014-Jul-26 08:33N 37°56' E 023°38'0 0.0
2014-Jul-26 07:33N 37°56' E 023°38'0 0.0
2014-Jul-26 06:33N 37°56' E 023°38'0 0.0
2014-Jul-26 05:33N 37°56' E 023°38'0 0.0
2014-Jul-26 04:33N 37°56' E 023°38'1 0.7
2014-Jul-26 03:34N 37°56' E 023°37'4 3.6
2014-Jul-26 02:34N 37°53' E 023°38'6 6.3
2014-Jul-26 01:34N 37°47' E 023°41'7 6.8
2014-Jul-26 00:33N 37°41' E 023°45'36 6.8
2014-Jul-25 19:19N 37°31' E 024°29'15 7.9
2014-Jul-25 17:26N 37°30' E 024°47'7 7.7
2014-Jul-25 16:28N 37°31' E 024°57'7 7.5
2014-Jul-25 15:34N 37°30' E 025°05'10 9.6
2014-Jul-25 14:34N 37°27' E 025°17'2 2.0
2014-Jul-25 13:30N 37°27' E 025°19'0 0.0
2014-Jul-25 12:33N 37°27' E 025°19'0 0.0
2014-Jul-25 11:33N 37°27' E 025°19'0 0.0
2014-Jul-25 10:33N 37°27' E 025°19'0 0.0
2014-Jul-25 09:33N 37°27' E 025°19'0 0.0
2014-Jul-25 08:33N 37°27' E 025°19'0 0.0
2014-Jul-25 07:33N 37°27' E 025°19'0 0.0
2014-Jul-25 06:33N 37°27' E 025°19'0 0.0
2014-Jul-25 05:33N 37°27' E 025°19'0 0.0
2014-Jul-25 04:33N 37°27' E 025°19'2 1.6
2014-Jul-25 03:33N 37°26' E 025°17'6 6.5
2014-Jul-25 02:34N 37°20' E 025°18'7 6.5
2014-Jul-25 01:33N 37°13' E 025°19'6 6.4
2014-Jul-25 00:33N 37°07' E 025°19'7 7.2
2014-Jul-24 23:34N 36°60' E 025°18'6 6.5
2014-Jul-24 22:33N 36°54' E 025°16'7 6.7
2014-Jul-24 21:33N 36°48' E 025°11'7 7.0
2014-Jul-24 20:34N 36°42' E 025°13'7 7.2
2014-Jul-24 19:33N 36°35' E 025°17'7 6.9
2014-Jul-24 18:33N 36°29' E 025°21'5 4.4
2014-Jul-24 17:23N 36°25' E 025°25'0 0.0
2014-Jul-24 16:29N 36°25' E 025°25'0 0.0
2014-Jul-24 15:29N 36°25' E 025°25'0 0.0
2014-Jul-24 14:23N 36°25' E 025°25'0 0.0
2014-Jul-24 13:29N 36°25' E 025°25'0 0.0
2014-Jul-24 12:23N 36°25' E 025°25'0 0.0
2014-Jul-24 11:29N 36°25' E 025°25'0 0.0
2014-Jul-24 10:17N 36°25' E 025°25'0 0.0
2014-Jul-24 09:29N 36°25' E 025°25'0 0.0
2014-Jul-24 08:29N 36°25' E 025°25'0 0.0
2014-Jul-24 07:29N 36°25' E 025°25'0 0.0
2014-Jul-24 06:29N 36°25' E 025°25'0 0.0
2014-Jul-24 05:29N 36°25' E 025°25'0 0.0
2014-Jul-24 04:29N 36°25' E 025°25'6 6.1
2014-Jul-24 03:33N 36°30' E 025°22'9 9.0
2014-Jul-24 02:33N 36°33' E 025°32'8 8.0
2014-Jul-24 01:33N 36°35' E 025°42'9 8.5
2014-Jul-24 00:33N 36°37' E 025°52'9 8.5
2014-Jul-23 23:32N 36°40' E 026°02'9 8.7
2014-Jul-23 22:29N 36°42' E 026°13'8 8.2
2014-Jul-23 21:33N 36°44' E 026°22'52 2.4
2014-Jul-23 00:27N 36°37' E 027°26'28 9.3
2014-Jul-22 21:26N 36°26' E 027°58'71 3.3
2014-Jul-21 23:33N 37°17' E 026°56'117 3.5
2014-Jul-20 14:30N 39°01' E 025°49'  
Track history (hours):
 
Tides and Currents Weather Stations Pressure Air Temp Water Temp Dewpoint Dewpoint Depression Visibility Wind Speed Wind Dir Waves Ship Positions

Wind Star

Operator: Holland America Line

Last reported at 2014-Jul-30 00:30 UTC. Time now 2014-Jul-30 07:11 UTC.
Position N 36°36' E 027°27'.

Length 135 m; draft 4.1 m.

Type: Ship. MMSI: 309163000.

Date/timePositionNaut miles runAvg speedWind from/ knotsBaromVisibWave heightAir tempDewpointWater temp
2014-Jul-30 00:30N 36°36' E 027°27'18 0.7
2014-Jul-28 23:29N 36°18' E 027°32'5310.6
2014-Jul-28 18:26N 36°17' E 026°26'1011.5
2014-Jul-28 17:33N 36°19' E 026°13'1211.5
2014-Jul-28 16:32N 36°19' E 025°59'1111.7
2014-Jul-28 15:33N 36°20' E 025°45'1211.6
2014-Jul-28 14:33N 36°19' E 025°30'8 7.6
2014-Jul-28 13:33N 36°23' E 025°22'3 2.9
2014-Jul-28 12:32N 36°25' E 025°25'0 0.0
2014-Jul-28 11:26N 36°25' E 025°25'0 0.0
2014-Jul-28 10:32N 36°25' E 025°25'0 0.0
2014-Jul-28 09:26N 36°25' E 025°25'0 0.0
2014-Jul-28 08:26N 36°25' E 025°25'0 0.0
2014-Jul-28 07:20N 36°25' E 025°25'0 0.0
2014-Jul-28 06:32N 36°25' E 025°25'0 0.0
2014-Jul-28 05:32N 36°25' E 025°25'0 0.2
2014-Jul-28 04:33N 36°25' E 025°25'4 4.3
2014-Jul-28 03:33N 36°28' E 025°21'6 5.9
2014-Jul-28 02:33N 36°33' E 025°18'6 5.9
2014-Jul-28 01:33N 36°39' E 025°15'6 5.9
2014-Jul-28 00:33N 36°44' E 025°12'5 5.5
2014-Jul-27 23:33N 36°50' E 025°12'6 5.9
2014-Jul-27 22:33N 36°54' E 025°17'6 6.0
2014-Jul-27 21:33N 37°00' E 025°18'6 6.2
2014-Jul-27 20:33N 37°06' E 025°19'6 6.1
2014-Jul-27 19:33N 37°13' E 025°19'6 6.5
2014-Jul-27 18:33N 37°19' E 025°18'7 6.6
2014-Jul-27 17:33N 37°26' E 025°17'2 1.8
2014-Jul-27 16:33N 37°27' E 025°19'0 0.0
2014-Jul-27 15:33N 37°27' E 025°19'0 0.0
2014-Jul-27 14:33N 37°27' E 025°19'0 0.0
2014-Jul-27 13:33N 37°27' E 025°19'0 0.0
2014-Jul-27 12:33N 37°27' E 025°19'0 0.0
2014-Jul-27 11:33N 37°27' E 025°19'0 0.0
2014-Jul-27 10:33N 37°27' E 025°19'0 0.0
2014-Jul-27 09:33N 37°27' E 025°19'0 0.0
2014-Jul-27 08:33N 37°27' E 025°19'0 0.0
2014-Jul-27 07:33N 37°27' E 025°19'0 0.0
2014-Jul-27 06:33N 37°27' E 025°19'0 0.0
2014-Jul-27 05:33N 37°27' E 025°19'0 0.0
2014-Jul-27 04:33N 37°27' E 025°19'3 2.6
2014-Jul-27 03:34N 37°28' E 025°16'7 6.5
2014-Jul-27 02:33N 37°29' E 025°08'6 6.4
2014-Jul-27 01:33N 37°31' E 025°01'13 6.3
2014-Jul-26 23:34N 37°30' E 024°45'6 6.5
2014-Jul-26 22:33N 37°30' E 024°37'7 7.2
2014-Jul-26 21:31N 37°31' E 024°27'27 6.3
2014-Jul-26 17:12N 37°37' E 023°54'6 9.3
2014-Jul-26 16:33N 37°38' E 023°46'9 9.0
2014-Jul-26 15:34N 37°45' E 023°40'1010.4
2014-Jul-26 14:34N 37°55' E 023°37'2 1.7
2014-Jul-26 13:33N 37°56' E 023°38'0 0.0
2014-Jul-26 12:33N 37°56' E 023°38'0 0.0
2014-Jul-26 11:33N 37°56' E 023°38'0 0.0
2014-Jul-26 10:33N 37°56' E 023°38'0 0.0
2014-Jul-26 09:33N 37°56' E 023°38'0 0.0
2014-Jul-26 08:33N 37°56' E 023°38'0 0.0
2014-Jul-26 07:33N 37°56' E 023°38'0 0.0
2014-Jul-26 06:33N 37°56' E 023°38'0 0.0
2014-Jul-26 05:33N 37°56' E 023°38'0 0.0
2014-Jul-26 04:33N 37°56' E 023°38'1 0.7
2014-Jul-26 03:34N 37°56' E 023°37'4 3.6
2014-Jul-26 02:34N 37°53' E 023°38'6 6.3
2014-Jul-26 01:34N 37°47' E 023°41'7 6.8
2014-Jul-26 00:33N 37°41' E 023°45'36 6.8
2014-Jul-25 19:19N 37°31' E 024°29'15 7.9
2014-Jul-25 17:26N 37°30' E 024°47'7 7.7
2014-Jul-25 16:28N 37°31' E 024°57'7 7.5
2014-Jul-25 15:34N 37°30' E 025°05'10 9.6
2014-Jul-25 14:34N 37°27' E 025°17'2 2.0
2014-Jul-25 13:30N 37°27' E 025°19'0 0.0
2014-Jul-25 12:33N 37°27' E 025°19'0 0.0
2014-Jul-25 11:33N 37°27' E 025°19'0 0.0
2014-Jul-25 10:33N 37°27' E 025°19'0 0.0
2014-Jul-25 09:33N 37°27' E 025°19'0 0.0
2014-Jul-25 08:33N 37°27' E 025°19'0 0.0
2014-Jul-25 07:33N 37°27' E 025°19'0 0.0
2014-Jul-25 06:33N 37°27' E 025°19'0 0.0
2014-Jul-25 05:33N 37°27' E 025°19'0 0.0
2014-Jul-25 04:33N 37°27' E 025°19'2 1.6
2014-Jul-25 03:33N 37°26' E 025°17'6 6.5
2014-Jul-25 02:34N 37°20' E 025°18'7 6.5
2014-Jul-25 01:33N 37°13' E 025°19'6 6.4
2014-Jul-25 00:33N 37°07' E 025°19'7 7.2
2014-Jul-24 23:34N 36°60' E 025°18'6 6.5
2014-Jul-24 22:33N 36°54' E 025°16'7 6.7
2014-Jul-24 21:33N 36°48' E 025°11'7 7.0
2014-Jul-24 20:34N 36°42' E 025°13'7 7.2
2014-Jul-24 19:33N 36°35' E 025°17'7 6.9
2014-Jul-24 18:33N 36°29' E 025°21'5 4.4
2014-Jul-24 17:23N 36°25' E 025°25'0 0.0
2014-Jul-24 16:29N 36°25' E 025°25'0 0.0
2014-Jul-24 15:29N 36°25' E 025°25'0 0.0
2014-Jul-24 14:23N 36°25' E 025°25'0 0.0
2014-Jul-24 13:29N 36°25' E 025°25'0 0.0
2014-Jul-24 12:23N 36°25' E 025°25'0 0.0
2014-Jul-24 11:29N 36°25' E 025°25'0 0.0
2014-Jul-24 10:17N 36°25' E 025°25'0 0.0
2014-Jul-24 09:29N 36°25' E 025°25'0 0.0
2014-Jul-24 08:29N 36°25' E 025°25'0 0.0
2014-Jul-24 07:29N 36°25' E 025°25'0 0.0
2014-Jul-24 06:29N 36°25' E 025°25'0 0.0
2014-Jul-24 05:29N 36°25' E 025°25'0 0.0
2014-Jul-24 04:29N 36°25' E 025°25'6 6.1
2014-Jul-24 03:33N 36°30' E 025°22'9 9.0
2014-Jul-24 02:33N 36°33' E 025°32'8 8.0
2014-Jul-24 01:33N 36°35' E 025°42'9 8.5
2014-Jul-24 00:33N 36°37' E 025°52'9 8.5
2014-Jul-23 23:32N 36°40' E 026°02'9 8.7
2014-Jul-23 22:29N 36°42' E 026°13'8 8.2
2014-Jul-23 21:33N 36°44' E 026°22'52 2.4
2014-Jul-23 00:27N 36°37' E 027°26'28 9.3
2014-Jul-22 21:26N 36°26' E 027°58'71 3.3
2014-Jul-21 23:33N 37°17' E 026°56'117 3.5
2014-Jul-20 14:30N 39°01' E 025°49'  

Dump ship's entire track history